,,,PA_Meas_PMT16A,,PR_Meas_QMR101_102,,RH_Meas_QMH101,,SR_Meas_QMS101,,TA_Meas_QMH101,,GenWind,,GenWind,
date,time,status,PA,status,PR,status,RH,status,SR,status,TA,status,DirAvg,status,SpdAvg,
2013-01-28, 00:00:04,VALID,1012.12,VALID,0,VALID,104,VALID,0,VALID,24.0253,VALID,355,VALID,0.108594,
2013-01-28, 00:01:04,VALID,1012.1,VALID,0,VALID,104,VALID,0,VALID,24.0253,VALID,355,VALID,0.00898437,
2013-01-28, 00:02:04,VALID,1012.11,VALID,0,VALID,104,VALID,0,VALID,24.0253,VALID,355,VALID,0.0148437,
2013-01-28, 00:03:04,VALID,1012.1,VALID,0,VALID,104,VALID,0,VALID,24.004,VALID,355,VALID,0.05,
2013-01-28, 00:04:04,VALID,1012.08,VALID,0,VALID,104,VALID,0,VALID,24.004,VALID,355,VALID,0.376172,
2013-01-28, 00:05:04,VALID,1012.04,VALID,0,VALID,104,VALID,0,VALID,24.0448,VALID,355,VALID,0.378125,
2013-01-28, 00:06:04,VALID,1012.03,VALID,0,VALID,104,VALID,0,VALID,24.0253,VALID,355,VALID,0.482422,
2013-01-28, 00:07:04,VALID,1011.99,VALID,0,VALID,104,VALID,0,VALID,24.0253,VALID,355,VALID,0.342578,
2013-01-28, 00:08:04,VALID,1011.96,VALID,0,VALID,104,VALID,0,VALID,24.0058,VALID,355,VALID,0.269141,
2013-01-28, 00:09:04,VALID,1011.92,VALID,0,VALID,104,VALID,0,VALID,23.9845,VALID,355,VALID,0.158984,
2013-01-28, 00:10:04,VALID,1011.91,VALID,0,VALID,104,VALID,0,VALID,23.965,VALID,355,VALID,0.0820313,
2013-01-28, 00:11:04,VALID,1011.91,VALID,0,VALID,104,VALID,0,VALID,23.9863,VALID,355,VALID,0.415234,
2013-01-28, 00:12:04,VALID,1011.86,VALID,0,VALID,104,VALID,0,VALID,23.965,VALID,355,VALID,0.234375,
2013-01-28, 00:13:04,VALID,1011.85,VALID,0,VALID,104,VALID,0,VALID,23.9863,VALID,355,VALID,0.201562,
2013-01-28, 00:14:04,VALID,1011.85,VALID,0,VALID,104,VALID,0,VALID,23.965,VALID,355,VALID,0.448047,
2013-01-28, 00:15:04,VALID,1011.84,VALID,0,VALID,104,VALID,0,VALID,23.965,VALID,358,VALID,0.325781,
2013-01-28, 00:16:04,VALID,1011.85,VALID,0,VALID,104,VALID,0,VALID,24.0253,VALID,358,VALID,0.467187,
2013-01-28, 00:17:04,VALID,1011.84,VALID,0,VALID,104,VALID,0,VALID,24.0448,VALID,358,VALID,0.238672,
2013-01-28, 00:18:04,VALID,1011.83,VALID,0,VALID,104,VALID,0,VALID,24.0643,VALID,358,VALID,0.256641,
2013-01-28, 00:19:04,VALID,1011.83,VALID,0,VALID,104,VALID,0,VALID,24.0837,VALID,358,VALID,0.112109,
2013-01-28, 00:20:04,VALID,1011.82,VALID,0,VALID,104,VALID,0,VALID,24.0429,VALID,358,VALID,0.000390625,
2013-01-28, 00:21:04,VALID,1011.81,VALID,0,VALID,104,VALID,0,VALID,24.0235,VALID,358,VALID,0.265625,
2013-01-28, 00:22:04,VALID,1011.81,VALID,0,VALID,104,VALID,0,VALID,24.0643,VALID,358,VALID,0.550781,
2013-01-28, 00:23:04,VALID,1011.81,VALID,0,VALID,104,VALID,0,VALID,24.0643,VALID,358,VALID,0.4125,
2013-01-28, 00:24:04,VALID,1011.8,VALID,0,VALID,104,VALID,0,VALID,24.0624,VALID,359,VALID,0.374219,
2013-01-28, 00:25:04,VALID,1011.79,VALID,0,VALID,104,VALID,0,VALID,24.0429,VALID,359,VALID,0.169922,
2013-01-28, 00:26:04,VALID,1011.8,VALID,0,VALID,104,VALID,0,VALID,24.0643,VALID,359,VALID,0,
2013-01-28, 00:27:04,VALID,1011.8,VALID,0,VALID,104,VALID,0,VALID,24.0448,VALID,358,VALID,0,
2013-01-28, 00:28:04,VALID,1011.77,VALID,0,VALID,104,VALID,0,VALID,24.004,VALID,359,VALID,0.315234,
2013-01-28, 00:29:04,VALID,1011.79,VALID,0,VALID,104,VALID,0,VALID,24.0448,VALID,359,VALID,0.246484,
2013-01-28, 00:30:04,VALID,1011.76,VALID,0,VALID,104,VALID,0,VALID,24.0253,VALID,359,VALID,0.117188,
2013-01-28, 00:31:04,VALID,1011.78,VALID,0,VALID,104,VALID,0,VALID,24.0253,VALID,358,VALID,0.216406,
2013-01-28, 00:32:04,VALID,1011.76,VALID,0,VALID,104,VALID,0,VALID,24.0253,VALID,358,VALID,0.211328,
2013-01-28, 00:33:04,VALID,1011.74,VALID,0,VALID,104,VALID,0,VALID,24.0058,VALID,358,VALID,0.107031,
2013-01-28, 00:34:04,VALID,1011.72,VALID,0,VALID,104,VALID,0,VALID,23.9668,VALID,358,VALID,0.244531,
2013-01-28, 00:35:04,VALID,1011.75,VALID,0,VALID,104,VALID,0,VALID,23.9668,VALID,359,VALID,0.157813,
2013-01-28, 00:36:04,VALID,1011.74,VALID,0,VALID,104,VALID,0,VALID,23.9668,VALID,359,VALID,0.121484,
2013-01-28, 00:37:04,VALID,1011.75,VALID,0,VALID,104,VALID,0,VALID,23.9278,VALID,359,VALID,0.0714844,
2013-01-28, 00:38:04,VALID,1011.76,VALID,0,VALID,104,VALID,0,VALID,23.8871,VALID,358,VALID,0,
2013-01-28, 00:39:04,VALID,1011.77,VALID,0,VALID,104,VALID,0,VALID,23.8676,VALID,358,VALID,0,
2013-01-28, 00:40:04,VALID,1011.79,VALID,0,VALID,104,VALID,0,VALID,23.8889,VALID,358,VALID,0,
2013-01-28, 00:41:04,VALID,1011.76,VALID,0,VALID,104,VALID,0,VALID,23.8499,VALID,358,VALID,0.00585938,
2013-01-28, 00:42:04,VALID,1011.78,VALID,0,VALID,104,VALID,0,VALID,23.8499,VALID,359,VALID,0.325391,
2013-01-28, 00:43:04,VALID,1011.75,VALID,0,VALID,104,VALID,0,VALID,23.8694,VALID,358,VALID,0.19375,
2013-01-28, 00:44:04,VALID,1011.76,VALID,0,VALID,104,VALID,0,VALID,23.8889,VALID,358,VALID,0.110156,
2013-01-28, 00:45:04,VALID,1011.77,VALID,0,VALID,104,VALID,0,VALID,23.8694,VALID,358,VALID,0.0570313,
2013-01-28, 00:46:04,VALID,1011.75,VALID,0,VALID,104,VALID,0,VALID,23.8499,VALID,358,VALID,0.0480469,
2013-01-28, 00:47:04,VALID,1011.78,VALID,0,VALID,104,VALID,0,VALID,23.8694,VALID,359,VALID,0.217969,
2013-01-28, 00:48:04,VALID,1011.74,VALID,0,VALID,104,VALID,0,VALID,23.8694,VALID,359,VALID,0.0746094,
2013-01-28, 00:49:04,VALID,1011.76,VALID,0,VALID,104,VALID,0,VALID,23.8694,VALID,358,VALID,0.457031,
2013-01-28, 00:50:04,VALID,1011.76,VALID,0,VALID,104,VALID,0,VALID,23.8889,VALID,341,VALID,0.425,
2013-01-28, 00:51:04,VALID,1011.76,VALID,0,VALID,104,VALID,0,VALID,23.9084,VALID,341,VALID,0.200391,
2013-01-28, 00:52:04,VALID,1011.74,VALID,0,VALID,104,VALID,0,VALID,23.9084,VALID,341,VALID,0.0621094,
2013-01-28, 00:53:04,VALID,1011.71,VALID,0,VALID,104,VALID,0,VALID,23.9084,VALID,341,VALID,0.331641,
2013-01-28, 00:54:04,VALID,1011.72,VALID,0,VALID,104,VALID,0,VALID,23.8871,VALID,341,VALID,0.278906,
2013-01-28, 00:55:04,VALID,1011.67,VALID,0,VALID,104,VALID,0,VALID,23.9065,VALID,341,VALID,0.0316406,
2013-01-28, 00:56:04,VALID,1011.67,VALID,0,VALID,104,VALID,0,VALID,23.9278,VALID,341,VALID,0.291016,
2013-01-28, 00:57:04,VALID,1011.63,VALID,0,VALID,104,VALID,0,VALID,23.9278,VALID,341,VALID,0.245312,
2013-01-28, 00:58:04,VALID,1011.61,VALID,0,VALID,104,VALID,0,VALID,23.9278,VALID,341,VALID,0.466016,
2013-01-28, 00:59:04,VALID,1011.6,VALID,0,VALID,104,VALID,0,VALID,23.9473,VALID,341,VALID,0.201953,
2013-01-28, 01:00:04,VALID,1011.59,VALID,0,VALID,104,VALID,0.112112,VALID,23.9455,VALID,341,VALID,0.273828,
2013-01-28, 01:01:04,VALID,1011.6,VALID,0,VALID,104,VALID,0,VALID,23.9278,VALID,341,VALID,0.220313,
2013-01-28, 01:02:04,VALID,1011.58,VALID,0,VALID,104,VALID,0,VALID,23.9473,VALID,341,VALID,0.127734,
2013-01-28, 01:03:04,VALID,1011.58,VALID,0,VALID,104,VALID,0,VALID,23.8871,VALID,341,VALID,0.325391,
2013-01-28, 01:04:04,VALID,1011.57,VALID,0,VALID,104,VALID,0,VALID,23.9278,VALID,341,VALID,0.196484,
2013-01-28, 01:05:04,VALID,1011.6,VALID,0,VALID,104,VALID,0,VALID,23.9278,VALID,341,VALID,0.0621094,
2013-01-28, 01:06:04,VALID,1011.59,VALID,0,VALID,104,VALID,0,VALID,23.9065,VALID,341,VALID,0,
2013-01-28, 01:07:04,VALID,1011.6,VALID,0,VALID,104,VALID,0.112112,VALID,23.8871,VALID,341,VALID,0.00195313,
2013-01-28, 01:08:04,VALID,1011.61,VALID,0,VALID,104,VALID,0,VALID,23.8694,VALID,341,VALID,0.251563,
2013-01-28, 01:09:04,VALID,1011.59,VALID,0,VALID,104,VALID,0,VALID,23.8499,VALID,341,VALID,0.332422,
2013-01-28, 01:10:04,VALID,1011.62,VALID,0,VALID,104,VALID,0.112112,VALID,23.8499,VALID,341,VALID,0.166016,
2013-01-28, 01:11:04,VALID,1011.61,VALID,0,VALID,104,VALID,0,VALID,23.8286,VALID,341,VALID,0.108203,
2013-01-28, 01:12:04,VALID,1011.59,VALID,0,VALID,104,VALID,0,VALID,23.7896,VALID,341,VALID,0.321094,
2013-01-28, 01:13:04,VALID,1011.56,VALID,0,VALID,104,VALID,0,VALID,23.8109,VALID,341,VALID,0.255859,
2013-01-28, 01:14:04,VALID,1011.56,VALID,0,VALID,104,VALID,0,VALID,23.8109,VALID,341,VALID,0.288672,
2013-01-28, 01:15:04,VALID,1011.56,VALID,0,VALID,104,VALID,0,VALID,23.8109,VALID,341,VALID,0.340234,
2013-01-28, 01:16:04,VALID,1011.56,VALID,0,VALID,104,VALID,0,VALID,23.8304,VALID,340,VALID,0.389844,
2013-01-28, 01:17:04,VALID,1011.55,VALID,0,VALID,104,VALID,0,VALID,23.8304,VALID,348,VALID,0.537891,
2013-01-28, 01:18:04,VALID,1011.53,VALID,0,VALID,104,VALID,0,VALID,23.8286,VALID,348,VALID,0.354688,
2013-01-28, 01:19:04,VALID,1011.55,VALID,0,VALID,104,VALID,0.112112,VALID,23.8304,VALID,348,VALID,0.341797,
2013-01-28, 01:20:04,VALID,1011.53,VALID,0,VALID,104,VALID,0,VALID,23.8304,VALID,348,VALID,0.385156,
2013-01-28, 01:21:04,VALID,1011.52,VALID,0,VALID,104,VALID,0,VALID,23.8304,VALID,348,VALID,0.392578,
2013-01-28, 01:22:04,VALID,1011.53,VALID,0,VALID,104,VALID,0,VALID,23.8499,VALID,348,VALID,0.301953,
2013-01-28, 01:23:04,VALID,1011.5,VALID,0,VALID,104,VALID,0.112112,VALID,23.8499,VALID,348,VALID,0.455469,
2013-01-28, 01:24:04,VALID,1011.51,VALID,0,VALID,104,VALID,0,VALID,23.8304,VALID,348,VALID,0.294141,
2013-01-28, 01:25:04,VALID,1011.48,VALID,0,VALID,104,VALID,0,VALID,23.8304,VALID,348,VALID,0,
2013-01-28, 01:26:04,VALID,1011.49,VALID,0,VALID,104,VALID,0,VALID,23.8304,VALID,348,VALID,0.476172,
2013-01-28, 01:27:04,VALID,1011.48,VALID,0,VALID,104,VALID,0.112112,VALID,23.8304,VALID,348,VALID,0.262891,
2013-01-28, 01:28:04,VALID,1011.47,VALID,0,VALID,104,VALID,0,VALID,23.8304,VALID,348,VALID,0.0738281,
2013-01-28, 01:29:04,VALID,1011.46,VALID,0,VALID,104,VALID,0,VALID,23.8109,VALID,348,VALID,0.106641,
2013-01-28, 01:30:04,VALID,1011.42,VALID,0,VALID,104,VALID,0,VALID,23.772,VALID,348,VALID,0.16875,
2013-01-28, 01:31:04,VALID,1011.41,VALID,0,VALID,104,VALID,0.112112,VALID,23.7525,VALID,348,VALID,0.317187,
2013-01-28, 01:32:04,VALID,1011.41,VALID,0,VALID,104,VALID,0,VALID,23.733,VALID,353,VALID,0.374219,
2013-01-28, 01:33:04,VALID,1011.4,VALID,0,VALID,104,VALID,0,VALID,23.733,VALID,353,VALID,0.0125,
2013-01-28, 01:34:04,VALID,1011.39,VALID,0,VALID,104,VALID,0,VALID,23.694,VALID,353,VALID,0.299219,
2013-01-28, 01:35:04,VALID,1011.4,VALID,0,VALID,104,VALID,0,VALID,23.6727,VALID,353,VALID,0.202344,
2013-01-28, 01:36:04,VALID,1011.37,VALID,0,VALID,104,VALID,0,VALID,23.6745,VALID,353,VALID,0.0894531,
2013-01-28, 01:37:04,VALID,1011.36,VALID,0,VALID,104,VALID,0.112112,VALID,23.694,VALID,353,VALID,0.028125,
2013-01-28, 01:38:04,VALID,1011.38,VALID,0,VALID,104,VALID,0.112112,VALID,23.6745,VALID,353,VALID,0.158984,
2013-01-28, 01:39:04,VALID,1011.37,VALID,0,VALID,104,VALID,0,VALID,23.5948,VALID,353,VALID,0.0140625,
2013-01-28, 01:40:04,VALID,1011.39,VALID,0,VALID,104,VALID,0.112112,VALID,23.6356,VALID,321,VALID,0.50625,
2013-01-28, 01:41:04,VALID,1011.38,VALID,0,VALID,104,VALID,0,VALID,23.6356,VALID,283,VALID,0.246875,
2013-01-28, 01:42:04,VALID,1011.36,VALID,0,VALID,104,VALID,0.112112,VALID,23.6338,VALID,283,VALID,0.196094,
2013-01-28, 01:43:04,VALID,1011.35,VALID,0,VALID,104,VALID,0,VALID,23.6745,VALID,283,VALID,0.0808594,
2013-01-28, 01:44:04,VALID,1011.35,VALID,0,VALID,104,VALID,0,VALID,23.655,VALID,283,VALID,0.327344,
2013-01-28, 01:45:04,VALID,1011.34,VALID,0,VALID,104,VALID,0,VALID,23.6532,VALID,283,VALID,0.322266,
2013-01-28, 01:46:04,VALID,1011.32,VALID,0,VALID,104,VALID,0,VALID,23.6745,VALID,283,VALID,0.0511719,
2013-01-28, 01:47:04,VALID,1011.29,VALID,0,VALID,104,VALID,0,VALID,23.6745,VALID,283,VALID,0.286719,
2013-01-28, 01:48:04,VALID,1011.28,VALID,0,VALID,104,VALID,0,VALID,23.6532,VALID,283,VALID,0.253906,
2013-01-28, 01:49:04,VALID,1011.28,VALID,0,VALID,104,VALID,0,VALID,23.6338,VALID,283,VALID,0.213672,
2013-01-28, 01:50:04,VALID,1011.26,VALID,0,VALID,104,VALID,0,VALID,23.6338,VALID,283,VALID,0,
2013-01-28, 01:51:04,VALID,1011.25,VALID,0,VALID,104,VALID,0,VALID,23.6338,VALID,283,VALID,0.291406,
2013-01-28, 01:52:04,VALID,1011.24,VALID,0,VALID,104,VALID,0,VALID,23.6143,VALID,283,VALID,0.0527344,
2013-01-28, 01:53:04,VALID,1011.26,VALID,0,VALID,104,VALID,0,VALID,23.6356,VALID,283,VALID,0,
2013-01-28, 01:54:04,VALID,1011.26,VALID,0,VALID,104,VALID,0,VALID,23.5966,VALID,283,VALID,0,
2013-01-28, 01:55:04,VALID,1011.27,VALID,0,VALID,104,VALID,0,VALID,23.5966,VALID,283,VALID,0.118359,
2013-01-28, 01:56:04,VALID,1011.26,VALID,0,VALID,104,VALID,0,VALID,23.5558,VALID,283,VALID,0.0933594,
2013-01-28, 01:57:04,VALID,1011.27,VALID,0,VALID,104,VALID,0,VALID,23.5576,VALID,283,VALID,0.244141,
2013-01-28, 01:58:04,VALID,1011.28,VALID,0,VALID,104,VALID,0,VALID,23.5381,VALID,283,VALID,0,
2013-01-28, 01:59:04,VALID,1011.26,VALID,0,VALID,104,VALID,0,VALID,23.5576,VALID,283,VALID,0.0234375,
2013-01-28, 02:00:04,VALID,1011.27,VALID,0,VALID,104,VALID,0,VALID,23.5381,VALID,283,VALID,0.148438,
2013-01-28, 02:01:04,VALID,1011.27,VALID,0,VALID,104,VALID,0.112112,VALID,23.5558,VALID,283,VALID,0,
2013-01-28, 02:02:04,VALID,1011.25,VALID,0,VALID,104,VALID,0.112112,VALID,23.5771,VALID,283,VALID,0.164844,
2013-01-28, 02:03:04,VALID,1011.26,VALID,0,VALID,104,VALID,0,VALID,23.5576,VALID,283,VALID,0,
2013-01-28, 02:04:04,VALID,1011.24,VALID,0,VALID,104,VALID,0.112112,VALID,23.5771,VALID,283,VALID,0.0148437,
2013-01-28, 02:05:04,VALID,1011.21,VALID,0,VALID,104,VALID,0,VALID,23.5753,VALID,283,VALID,0.0421875,
2013-01-28, 02:06:04,VALID,1011.22,VALID,0,VALID,104,VALID,0,VALID,23.5771,VALID,283,VALID,0.327344,
2013-01-28, 02:07:04,VALID,1011.23,VALID,0,VALID,104,VALID,0,VALID,23.5558,VALID,283,VALID,0.278125,
2013-01-28, 02:08:04,VALID,1011.21,VALID,0,VALID,104,VALID,0,VALID,23.5576,VALID,283,VALID,0.139453,
2013-01-28, 02:09:04,VALID,1011.22,VALID,0,VALID,104,VALID,0,VALID,23.5381,VALID,283,VALID,0.137891,
2013-01-28, 02:10:04,VALID,1011.21,VALID,0,VALID,104,VALID,0,VALID,23.5381,VALID,283,VALID,0.151172,
2013-01-28, 02:11:04,VALID,1011.21,VALID,0,VALID,104,VALID,0,VALID,23.4974,VALID,283,VALID,0.171875,
2013-01-28, 02:12:04,VALID,1011.18,VALID,0,VALID,104,VALID,0,VALID,23.4992,VALID,283,VALID,0.234375,
2013-01-28, 02:13:04,VALID,1011.15,VALID,0,VALID,104,VALID,0,VALID,23.4992,VALID,283,VALID,0.188672,
2013-01-28, 02:14:04,VALID,1011.14,VALID,0,VALID,104,VALID,0,VALID,23.4992,VALID,283,VALID,0.136719,
2013-01-28, 02:15:04,VALID,1011.13,VALID,0,VALID,104,VALID,0,VALID,23.4797,VALID,283,VALID,0.354688,
2013-01-28, 02:16:04,VALID,1011.13,VALID,0,VALID,104,VALID,0,VALID,23.4584,VALID,283,VALID,0.157031,
2013-01-28, 02:17:04,VALID,1011.12,VALID,0,VALID,104,VALID,0.112112,VALID,23.4992,VALID,283,VALID,0.232812,
2013-01-28, 02:18:04,VALID,1011.11,VALID,0,VALID,104,VALID,0,VALID,23.4779,VALID,283,VALID,0.397656,
2013-01-28, 02:19:04,VALID,1011.11,VALID,0,VALID,104,VALID,0.112112,VALID,23.4779,VALID,283,VALID,0.346484,
2013-01-28, 02:20:04,VALID,1011.11,VALID,0,VALID,104,VALID,0.112112,VALID,23.4779,VALID,283,VALID,0.0617188,
2013-01-28, 02:21:04,VALID,1011.12,VALID,0,VALID,104,VALID,0.112112,VALID,23.4992,VALID,283,VALID,0.202344,
2013-01-28, 02:22:04,VALID,1011.12,VALID,0,VALID,104,VALID,0,VALID,23.4992,VALID,282,VALID,0.148828,
2013-01-28, 02:23:04,VALID,1011.12,VALID,0,VALID,104,VALID,0.112112,VALID,23.4974,VALID,284,VALID,0,
2013-01-28, 02:24:04,VALID,1011.13,VALID,0,VALID,104,VALID,0,VALID,23.4992,VALID,283,VALID,0,
2013-01-28, 02:25:04,VALID,1011.11,VALID,0,VALID,104,VALID,0,VALID,23.4797,VALID,283,VALID,0,
2013-01-28, 02:26:04,VALID,1011.12,VALID,0,VALID,104,VALID,0,VALID,23.4602,VALID,283,VALID,0,
2013-01-28, 02:27:04,VALID,1011.12,VALID,0,VALID,104,VALID,0.112112,VALID,23.4602,VALID,283,VALID,0,
2013-01-28, 02:28:04,VALID,1011.1,VALID,0,VALID,104,VALID,0.112112,VALID,23.4389,VALID,283,VALID,0.183594,
2013-01-28, 02:29:04,VALID,1011.09,VALID,0,VALID,104,VALID,0,VALID,23.4194,VALID,283,VALID,0.0117188,
2013-01-28, 02:30:04,VALID,1011.07,VALID,0,VALID,104,VALID,0.112112,VALID,23.4602,VALID,283,VALID,0.349219,
2013-01-28, 02:31:04,VALID,1011.05,VALID,0,VALID,104,VALID,0,VALID,23.4212,VALID,283,VALID,0.127734,
2013-01-28, 02:32:04,VALID,1011.03,VALID,0,VALID,104,VALID,0,VALID,23.4407,VALID,283,VALID,0,
2013-01-28, 02:33:04,VALID,1011.02,VALID,0,VALID,104,VALID,0.112112,VALID,23.4017,VALID,283,VALID,0.320703,
2013-01-28, 02:34:04,VALID,1011.03,VALID,0,VALID,104,VALID,0,VALID,23.4017,VALID,283,VALID,0.3375,
2013-01-28, 02:35:04,VALID,1011.04,VALID,0,VALID,104,VALID,0,VALID,23.3823,VALID,283,VALID,0.264062,
2013-01-28, 02:36:04,VALID,1011.05,VALID,0,VALID,104,VALID,0,VALID,23.4017,VALID,283,VALID,0.133594,
2013-01-28, 02:37:04,VALID,1011.06,VALID,0,VALID,104,VALID,0,VALID,23.3823,VALID,283,VALID,0.0347656,
2013-01-28, 02:38:04,VALID,1011.04,VALID,0,VALID,104,VALID,0,VALID,23.3823,VALID,283,VALID,0.112109,
2013-01-28, 02:39:04,VALID,1011.06,VALID,0,VALID,104,VALID,0,VALID,23.3628,VALID,283,VALID,0.101172,
2013-01-28, 02:40:04,VALID,1011.05,VALID,0,VALID,104,VALID,0,VALID,23.3433,VALID,283,VALID,0.0570313,
2013-01-28, 02:41:04,VALID,1011.04,VALID,0,VALID,104,VALID,0,VALID,23.3628,VALID,282,VALID,0.251953,
2013-01-28, 02:42:04,VALID,1011.04,VALID,0,VALID,104,VALID,0,VALID,23.3628,VALID,281,VALID,0.0117188,
2013-01-28, 02:43:04,VALID,1011.05,VALID,0,VALID,104,VALID,0,VALID,23.3628,VALID,282,VALID,0.163281,
2013-01-28, 02:44:04,VALID,1011.07,VALID,0,VALID,104,VALID,0,VALID,23.3823,VALID,282,VALID,0.390234,
2013-01-28, 02:45:04,VALID,1011.06,VALID,0,VALID,104,VALID,0,VALID,23.3823,VALID,282,VALID,0.288281,
2013-01-28, 02:46:04,VALID,1011.06,VALID,0,VALID,104,VALID,0,VALID,23.3628,VALID,282,VALID,0.348047,
2013-01-28, 02:47:04,VALID,1011.06,VALID,0,VALID,104,VALID,0,VALID,23.3433,VALID,284,VALID,0.561719,
2013-01-28, 02:48:04,VALID,1011.05,VALID,0,VALID,104,VALID,0,VALID,23.3628,VALID,287,VALID,0.239844,
2013-01-28, 02:49:04,VALID,1011.07,VALID,0,VALID,104,VALID,0,VALID,23.3433,VALID,287,VALID,0.283594,
2013-01-28, 02:50:04,VALID,1011.08,VALID,0,VALID,104,VALID,0,VALID,23.3238,VALID,287,VALID,0.152344,
2013-01-28, 02:51:04,VALID,1011.08,VALID,0,VALID,104,VALID,0,VALID,23.3043,VALID,287,VALID,0.248047,
2013-01-28, 02:52:04,VALID,1011.07,VALID,0,VALID,104,VALID,0,VALID,23.3238,VALID,287,VALID,0.223828,
2013-01-28, 02:53:04,VALID,1011.08,VALID,0,VALID,104,VALID,0,VALID,23.3043,VALID,287,VALID,0,
2013-01-28, 02:54:04,VALID,1011.08,VALID,0,VALID,104,VALID,0,VALID,23.3043,VALID,287,VALID,0.0015625,
2013-01-28, 02:55:04,VALID,1011.09,VALID,0,VALID,104,VALID,0,VALID,23.2848,VALID,287,VALID,0,
2013-01-28, 02:56:04,VALID,1011.09,VALID,0,VALID,104,VALID,0,VALID,23.2848,VALID,287,VALID,0,
2013-01-28, 02:57:04,VALID,1011.13,VALID,0,VALID,104,VALID,0,VALID,23.3043,VALID,287,VALID,0.0984375,
2013-01-28, 02:58:04,VALID,1011.11,VALID,0,VALID,104,VALID,0,VALID,23.3043,VALID,287,VALID,0,
2013-01-28, 02:59:04,VALID,1011.12,VALID,0,VALID,104,VALID,0,VALID,23.3043,VALID,286,VALID,0.244922,
2013-01-28, 03:00:04,VALID,1011.14,VALID,0,VALID,104,VALID,0,VALID,23.3043,VALID,287,VALID,0.389062,
2013-01-28, 03:01:04,VALID,1011.1,VALID,0,VALID,104,VALID,0,VALID,23.2831,VALID,287,VALID,0.167969,
2013-01-28, 03:02:04,VALID,1011.12,VALID,0,VALID,104,VALID,0,VALID,23.2848,VALID,287,VALID,0.222266,
2013-01-28, 03:03:04,VALID,1011.09,VALID,0,VALID,104,VALID,0,VALID,23.2654,VALID,287,VALID,0.299219,
2013-01-28, 03:04:04,VALID,1011.09,VALID,0,VALID,104,VALID,0,VALID,23.2654,VALID,287,VALID,0.203125,
2013-01-28, 03:05:04,VALID,1011.1,VALID,0,VALID,104,VALID,0,VALID,23.2459,VALID,287,VALID,0.270703,
2013-01-28, 03:06:04,VALID,1011.11,VALID,0,VALID,104,VALID,0,VALID,23.2264,VALID,287,VALID,0.196484,
2013-01-28, 03:07:04,VALID,1011.1,VALID,0,VALID,104,VALID,0,VALID,23.2264,VALID,287,VALID,0.285547,
2013-01-28, 03:08:04,VALID,1011.08,VALID,0,VALID,104,VALID,0,VALID,23.2264,VALID,287,VALID,0.216016,
2013-01-28, 03:09:04,VALID,1011.08,VALID,0,VALID,104,VALID,0,VALID,23.1857,VALID,287,VALID,0.263281,
2013-01-28, 03:10:04,VALID,1011.06,VALID,0,VALID,104,VALID,0,VALID,23.2264,VALID,286,VALID,0.100391,
2013-01-28, 03:11:04,VALID,1011.08,VALID,0,VALID,104,VALID,0,VALID,23.2264,VALID,287,VALID,0.119531,
2013-01-28, 03:12:04,VALID,1011.08,VALID,0,VALID,104,VALID,0,VALID,23.2069,VALID,287,VALID,0.0015625,
2013-01-28, 03:13:04,VALID,1011.05,VALID,0,VALID,104,VALID,0,VALID,23.1662,VALID,287,VALID,0.209766,
2013-01-28, 03:14:04,VALID,1011.03,VALID,0,VALID,104,VALID,0,VALID,23.1679,VALID,287,VALID,0.272266,
2013-01-28, 03:15:04,VALID,1011.03,VALID,0,VALID,104,VALID,0,VALID,23.1467,VALID,287,VALID,0.348047,
2013-01-28, 03:16:04,VALID,1011.04,VALID,0,VALID,104,VALID,0,VALID,23.1679,VALID,287,VALID,0.378906,
2013-01-28, 03:17:04,VALID,1011.02,VALID,0,VALID,104,VALID,0,VALID,23.1485,VALID,287,VALID,0.4625,
2013-01-28, 03:18:04,VALID,1011.04,VALID,0,VALID,104,VALID,0,VALID,23.1095,VALID,287,VALID,0.164844,
2013-01-28, 03:19:04,VALID,1011.05,VALID,0,VALID,104,VALID,0,VALID,23.09,VALID,287,VALID,0.16875,
2013-01-28, 03:20:04,VALID,1011.07,VALID,0,VALID,104,VALID,0,VALID,23.09,VALID,287,VALID,0.172266,
2013-01-28, 03:21:04,VALID,1011.06,VALID,0,VALID,104,VALID,0,VALID,23.0883,VALID,288,VALID,0.514844,
2013-01-28, 03:22:04,VALID,1011.07,VALID,0,VALID,104,VALID,0,VALID,23.1095,VALID,290,VALID,0.26875,
2013-01-28, 03:23:04,VALID,1011.07,VALID,0,VALID,104,VALID,0,VALID,23.1485,VALID,290,VALID,0.214844,
2013-01-28, 03:24:04,VALID,1011.07,VALID,0,VALID,104,VALID,0,VALID,23.1679,VALID,290,VALID,0.36875,
2013-01-28, 03:25:04,VALID,1011.07,VALID,0,VALID,104,VALID,0,VALID,23.129,VALID,290,VALID,0.339063,
2013-01-28, 03:26:04,VALID,1011.09,VALID,0,VALID,104,VALID,0,VALID,23.1095,VALID,290,VALID,0.281641,
2013-01-28, 03:27:04,VALID,1011.09,VALID,0,VALID,104,VALID,0,VALID,23.129,VALID,290,VALID,0.213672,
2013-01-28, 03:28:04,VALID,1011.07,VALID,0,VALID,104,VALID,0,VALID,23.129,VALID,290,VALID,0.360547,
2013-01-28, 03:29:04,VALID,1011.08,VALID,0,VALID,104,VALID,0,VALID,23.129,VALID,290,VALID,0.234375,
2013-01-28, 03:30:04,VALID,1011.1,VALID,0,VALID,104,VALID,0,VALID,23.1095,VALID,290,VALID,0.200781,
2013-01-28, 03:31:04,VALID,1011.1,VALID,0,VALID,104,VALID,0,VALID,23.1095,VALID,290,VALID,0,
2013-01-28, 03:32:04,VALID,1011.1,VALID,0,VALID,104,VALID,0,VALID,23.1077,VALID,290,VALID,0,
2013-01-28, 03:33:04,VALID,1011.16,VALID,0,VALID,104,VALID,0,VALID,23.1095,VALID,290,VALID,0.319922,
2013-01-28, 03:34:04,VALID,1011.15,VALID,0,VALID,104,VALID,0,VALID,23.1095,VALID,290,VALID,0.112109,
2013-01-28, 03:35:04,VALID,1011.14,VALID,0,VALID,104,VALID,0.112112,VALID,23.129,VALID,290,VALID,0.267188,
2013-01-28, 03:36:04,VALID,1011.15,VALID,0,VALID,104,VALID,0,VALID,23.1272,VALID,299,VALID,0.310937,
2013-01-28, 03:37:04,VALID,1011.13,VALID,0,VALID,104,VALID,0.112112,VALID,23.1467,VALID,299,VALID,0.130469,
2013-01-28, 03:38:04,VALID,1011.13,VALID,0,VALID,104,VALID,0.112112,VALID,23.1272,VALID,299,VALID,0.245312,
2013-01-28, 03:39:04,VALID,1011.13,VALID,0,VALID,104,VALID,0.112112,VALID,23.1272,VALID,299,VALID,0.225391,
2013-01-28, 03:40:04,VALID,1011.12,VALID,0,VALID,104,VALID,0,VALID,23.1485,VALID,301,VALID,0.425,
2013-01-28, 03:41:04,VALID,1011.09,VALID,0,VALID,104,VALID,0,VALID,23.1485,VALID,301,VALID,0.323828,
2013-01-28, 03:42:04,VALID,1011.11,VALID,0,VALID,104,VALID,0,VALID,23.1272,VALID,301,VALID,0.296484,
2013-01-28, 03:43:04,VALID,1011.09,VALID,0,VALID,104,VALID,0,VALID,23.129,VALID,301,VALID,0.463281,
2013-01-28, 03:44:04,VALID,1011.08,VALID,0,VALID,104,VALID,0,VALID,23.1077,VALID,301,VALID,0.319531,
2013-01-28, 03:45:04,VALID,1011.07,VALID,0,VALID,104,VALID,0,VALID,23.1095,VALID,301,VALID,0.189063,
2013-01-28, 03:46:04,VALID,1011.06,VALID,0,VALID,104,VALID,0,VALID,23.09,VALID,301,VALID,0.021875,
2013-01-28, 03:47:04,VALID,1011.05,VALID,0,VALID,104,VALID,0,VALID,23.0511,VALID,301,VALID,0,
2013-01-28, 03:48:04,VALID,1011.04,VALID,0,VALID,104,VALID,0,VALID,23.0316,VALID,301,VALID,0.1,
2013-01-28, 03:49:04,VALID,1011.02,VALID,0,VALID,104,VALID,0,VALID,23.0103,VALID,301,VALID,0.135547,
2013-01-28, 03:50:04,VALID,1010.99,VALID,0,VALID,104,VALID,0.112112,VALID,23.0103,VALID,301,VALID,0.14375,
2013-01-28, 03:51:04,VALID,1010.99,VALID,0,VALID,104,VALID,0.112112,VALID,23.0103,VALID,301,VALID,0.210938,
2013-01-28, 03:52:04,VALID,1011.01,VALID,0,VALID,104,VALID,0,VALID,23.0121,VALID,301,VALID,0.205859,